Temperature
28 29 29 29 29 29 29 29 29 27 25 25 23 21 21 20 20 20 20 19 19 18 17 16 16 17 16 16 16 17 17 17 17 17 17 16 16 16 16 16 16 16 16 16
29 29 29 29 29 29 29 29 28 26 24 24 23 21 21 21 20 20 20 19 19 19 18 17 17 17 17 17 17 17 17 17 17 17 17 16 16 15 15 15 16 16 17 17
28 29 29 29 29 29 29 29 29 27 25 25 24 23 22 22 21 20 19 19 19 18 18 18 18 17 17 17 17 17 17 17 17 17 16 15 15 16 15 15 15 16 16 17
29 29 28 28 29 29 29 29 28 27 26 27 26 25 23 23 22 21 20 20 19 18 18 18 18 17 17 17 16 16 16 16 16 16 15 15 15 15 14 14 14 14 15 16
28 28 28 28 28 28 28 28 28 27 27 27 26 26 23 23 23 22 21 20 19 19 18 18 17 17 17 16 16 16 16 16 16 16 15 15 15 15 15 14 14 14 14 14
28 28 28 28 28 28 28 28 27 28 28 26 26 26 23 23 23 23 22 20 19 18 18 18 17 17 16 16 16 15 15 15 14 14 14 14 14 14 14 14 14 14 14 14
28 28 29 29 29 29 29 28 27 27 26 26 26 25 22 23 23 23 22 21 19 19 18 18 17 17 16 16 15 15 14 13 13 13 13 13 13 13 13 13 13 13 14 14
27 27 28 28 28 28 28 28 26 25 26 26 25 24 22 22 21 21 21 20 19 19 18 18 17 16 16 15 15 14 13 13 13 13 12 12 12 12 13 13 13 13 13 13
27 27 27 27 28 28 28 28 28 27 26 26 25 23 22 21 21 21 20 20 19 18 18 17 17 16 15 15 14 13 13 12 12 12 12 12 12 11 12 11 11 12 12 12
27 27 27 27 28 27 27 27 27 26 25 25 25 24 22 22 22 21 21 20 19 18 18 17 16 16 15 14 14 13 12 12 11 11 11 11 11 11 11 11 11 11 11 11
27 27 27 27 26 26 27 26 26 26 25 24 24 24 23 22 21 21 21 20 19 18 17 17 16 15 14 14 13 13 12 11 11 10 10 10 10 10 10 10 10 10 10 10
26 27 26 26 25 26 26 25 26 25 24 24 24 24 22 22 21 20 20 19 18 17 16 16 15 14 14 13 12 12 11 10 10 9 9 9 8 9 9 9 9 9 9 9
26 26 25 25 25 26 25 25 25 25 24 24 23 24 22 21 20 20 19 18 17 16 16 15 14 14 13 12 11 11 10 9 9 8 8 8 8 8 8 8 8 8 8 8
24 26 26 26 25 26 25 24 24 25 25 24 23 23 23 22 21 20 19 17 17 16 15 14 13 13 12 11 10 10 9 8 8 7 7 7 7 7 7 7 7 7 7 7
26 26 26 26 25 25 25 24 23 23 23 23 22 22 22 21 20 19 18 17 16 15 15 14 13 12 11 10 9 9 8 7 7 6 6 6 6 6 6 6 6 6 6 6
25 26 25 25 25 25 24 23 23 23 23 23 22 22 22 20 19 18 17 16 16 15 14 13 12 11 10 10 9 8 7 7 6 6 6 6 6 6 6 6 5 5 5 5
26 25 25 25 25 24 24 24 23 23 23 22 22 22 22 20 19 17 16 16 15 14 13 12 11 11 10 9 8 7 7 6 6 6 6 6 5 5 5 5 5 5 5 5
25 24 25 25 24 23 24 24 23 22 22 22 22 22 21 19 18 16 16 15 14 13 12 11 11 10 10 9 8 7 7 6 6 6 6 5 5 5 5 5 4 4 4 4
24 24 25 25 24 25 24 23 23 22 22 22 21 21 20 19 18 19 16 14 13 12 11 11 10 10 9 8 7 7 6 6 6 6 6 5 5 5 5 4 4 4 4 4
23 23 24 24 23 23 24 23 22 22 22 22 21 20 19 18 19 19 16 14 13 11 11 10 10 9 9 8 7 6 6 6 6 6 5 5 5 5 4 4 4 4 4 4
24 24 24 24 23 25 24 22 21 22 22 21 20 19 18 18 17 16 14 13 12 11 10 10 9 9 8 7 6 6 6 6 6 5 5 5 5 5 5 5 4 4 4 4
25 25 24 23 23 24 23 22 22 22 21 20 19 18 17 16 16 15 14 12 11 11 10 10 9 9 8 7 6 6 6 6 5 5 5 5 5 5 5 5 5 4 4 4
24 25 25 24 24 23 22 22 22 21 20 19 19 18 17 16 15 14 13 12 11 10 10 9 9 8 8 7 7 6 6 5 5 5 5 5 5 5 5 5 5 5 4 4
25 22 23 23 24 23 22 21 21 20 19 18 18 17 16 15 15 14 13 12 11 10 9 9 8 8 8 7 7 6 6 6 5 5 5 5 5 5 5 5 5 5 5 4
25 23 23 23 23 23 22 21 21 20 19 18 17 16 15 15 14 13 12 11 10 10 9 8 8 7 7 7 7 6 6 6 5 5 5 5 5 6 6 6 6 5 5 4
25 24 23 24 24 23 23 22 20 19 18 18 17 16 15 14 13 12 12 11 10 9 9 8 7 7 7 7 7 6 6 6 6 5 5 5 6 6 6 6 6 6 5 5
Wind_Speed
4 6 3 3 4 5 4 4 1 6 4 6 10 10 7 6 6 7 7 7 8 8 8 7 7 8 8 8 9 9 9 9 9 8 8 8 7 7 6 5 6 7 7 7
6 6 2 3 3 5 6 6 2 6 6 4 9 9 7 6 6 6 7 7 8 8 9 8 8 8 9 9 9 9 10 10 9 8 7 6 7 7 6 6 6 8 8 7
8 4 2 6 7 7 7 7 3 4 6 7 9 8 7 7 6 6 6 6 7 7 8 8 8 9 9 9 10 9 9 9 9 8 7 7 6 6 6 7 6 8 8 8
4 2 3 7 6 6 4 3 3 6 9 5 8 3 7 7 6 6 5 5 5 4 5 6 7 9 10 10 10 10 10 10 9 9 9 10 8 9 8 7 7 8 7 8
3 3 3 2 3 5 4 3 3 7 8 4 6 4 7 6 6 6 5 3 2 2 4 6 8 10 11 12 12 12 12 12 11 10 10 10 12 10 9 8 8 8 7 6
3 1 3 4 2 1 2 3 5 7 8 5 1 5 6 5 4 5 4 2 1 3 6 8 10 12 13 13 14 14 14 14 14 13 13 12 13 13 13 11 10 9 7 6
3 5 4 3 2 3 4 6 5 4 4 1 2 2 6 5 2 1 2 3 4 6 8 10 13 14 15 15 14 14 14 15 15 15 15 14 14 15 14 14 12 10 10 8
2 2 6 7 5 3 3 6 6 7 7 3 3 1 5 3 0 2 4 5 6 8 10 12 14 15 15 14 13 14 15 16 17 17 16 15 15 14 14 14 14 13 12 11
5 2 5 6 7 5 3 4 5 7 7 7 1 6 5 3 2 4 5 6 8 9 11 13 14 15 14 14 15 16 17 18 18 18 18 17 16 15 16 16 15 15 13 12
5 3 3 2 0 7 5 3 5 7 8 8 5 3 3 3 3 4 6 8 9 11 13 15 15 15 15 16 17 18 18 18 18 19 17 16 17 17 16 16 16 16 16 15
5 3 2 2 6 7 3 4 5 5 5 8 9 4 5 3 4 6 7 9 12 14 16 16 16 16 16 17 18 18 18 19 19 19 18 18 18 18 18 17 17 16 16 16
4 3 2 5 5 4 6 6 6 6 5 5 9 4 7 3 5 7 10 12 14 16 17 17 18 17 18 19 19 19 19 20 19 19 18 18 18 18 18 19 18 17 17 17
2 1 3 6 6 3 2 4 4 3 4 6 9 8 3 3 7 9 12 15 16 17 18 18 17 17 18 19 19 19 20 19 19 18 18 19 19 19 19 18 18 18 18 18
2 2 5 6 5 3 1 1 2 6 6 9 10 14 13 10 10 11 14 16 17 17 17 17 17 17 18 18 18 19 19 18 18 18 18 18 18 18 19 19 18 18 18 18
3 0 2 3 2 3 4 3 3 3 6 9 13 15 14 11 10 12 14 16 17 17 17 18 18 18 18 18 18 18 18 17 17 18 18 19 19 19 19 19 18 18 18 18
1 2 3 4 3 5 7 6 5 4 6 10 13 13 8 7 11 14 15 17 17 17 18 19 19 19 18 18 17 17 17 17 17 18 18 19 19 19 19 19 19 19 18 18
2 3 5 7 2 8 8 7 6 4 7 10 12 13 13 13 14 16 16 16 16 17 18 19 19 18 17 17 16 17 16 17 17 17 18 18 19 19 20 20 20 19 19 18
4 5 5 8 6 8 3 5 3 6 9 8 10 13 12 13 13 15 13 12 15 17 18 18 18 17 16 16 16 15 16 16 17 17 18 18 18 20 20 20 20 19 17 16
5 6 7 8 10 11 3 5 3 6 10 5 9 11 11 12 15 9 5 11 15 16 17 16 16 17 16 15 15 16 16 16 17 17 18 18 19 20 20 19 19 17 16 16
4 6 9 9 12 11 1 8 2 4 4 3 7 10 12 13 13 11 14 15 16 16 15 16 16 16 15 15 15 16 16 17 17 17 18 19 19 19 19 19 18 15 14 14
7 7 10 11 12 8 6 8 4 6 8 8 8 9 11 11 12 15 16 15 15 16 16 15 15 15 14 14 14 16 17 17 17 17 18 19 18 18 18 17 15 14 12 12
8 7 6 6 7 4 10 7 4 6 5 6 8 9 10 11 13 14 15 15 16 16 16 16 14 15 14 14 14 16 17 17 17 17 18 18 18 17 15 16 15 13 11 11
5 6 5 5 6 1 9 8 4 4 6 7 7 8 9 12 14 14 14 15 16 16 16 15 15 15 15 14 13 15 17 16 16 17 18 18 18 16 15 14 14 12 10 8
5 3 7 9 10 8 9 11 10 8 8 7 7 8 9 12 14 14 14 15 16 16 16 15 15 16 16 15 14 14 15 15 15 16 17 16 16 15 14 12 10 9 9 8
11 5 9 13 13 10 11 12 10 9 9 8 7 8 9 11 13 14 13 14 15 16 15 15 14 15 16 16 15 15 14 14 15 15 15 15 15 14 13 12 9 9 8 6
10 11 12 11 8 7 6 6 7 8 9 8 8 8 9 10 12 13 13 14 15 16 16 15 16 16 17 16 16 15 14 14 14 13 13 12 12 12 12 11 10 5 5 4
Wind_Direction
215 242 246 358 345 338 312 294 1 91 93 82 96 94 81 74 74 73 69 66 69 68 67 61 57 54 57 50 44 36 28 23 13 11 1 354 346 336 337 334 333 317 298 276
243 239 288 313 291 273 267 265 205 119 118 113 113 101 94 83 76 71 75 77 79 79 73 65 60 56 48 42 33 29 25 20 14 13 357 349 338 331 340 343 349 344 332 312
289 308 318 271 272 266 261 275 272 167 151 159 150 129 122 114 110 106 98 90 83 73 65 56 44 37 30 22 14 11 6 3 5 354 348 349 340 332 346 349 350 351 343 335
289 346 287 272 270 277 275 347 277 185 198 198 220 208 140 139 137 128 119 110 94 73 48 28 15 9 3 357 352 351 346 345 342 333 338 340 334 333 335 330 340 337 339 340
19 355 311 294 352 310 1 346 242 214 233 232 215 243 141 164 163 149 141 127 85 29 360 351 347 345 342 339 337 335 335 331 328 322 313 307 310 315 312 314 316 316 321 326
45 44 349 353 350 332 160 182 182 211 231 227 179 265 140 157 154 152 161 183 280 308 317 323 327 328 327 327 327 328 329 327 324 316 308 299 298 297 298 296 299 297 300 297
108 87 53 346 253 170 242 282 269 243 244 116 136 267 101 105 111 211 240 253 275 293 306 316 322 324 321 321 324 326 329 329 326 320 313 305 298 292 285 283 286 284 286 283
286 97 39 20 358 344 356 326 334 322 324 332 173 113 107 93 90 269 270 277 283 296 311 319 323 322 319 319 322 326 327 324 322 319 317 311 302 294 291 290 288 284 280 278
337 53 76 43 32 341 327 360 347 301 295 293 154 129 132 152 235 262 274 281 291 306 313 316 321 322 319 316 318 321 321 320 320 318 315 307 306 302 298 295 283 279 276 274
345 302 79 56 267 51 35 0 316 322 326 314 301 203 147 162 307 288 284 295 305 309 311 317 321 322 321 318 318 317 318 318 318 316 317 315 314 309 303 297 293 288 285 278
353 307 94 85 41 28 42 31 346 329 338 320 320 2 91 28 322 309 306 309 313 316 318 319 319 321 321 319 319 320 319 318 316 315 315 313 310 308 305 299 293 288 282 279
2 318 86 96 89 45 53 25 358 339 340 319 310 353 108 12 318 304 309 314 318 319 318 319 320 321 320 320 320 319 318 315 314 315 312 309 307 305 302 299 299 295 288 280
18 278 191 171 169 156 58 42 17 341 306 323 319 342 95 312 300 299 306 317 321 320 320 320 319 320 319 319 317 316 315 314 315 314 311 309 307 305 303 302 299 296 291 283
304 23 352 15 23 1 296 329 333 309 325 327 328 324 328 326 313 311 318 321 319 319 319 319 319 318 318 316 315 314 313 315 315 314 312 309 308 307 305 302 299 295 291 287
272 44 23 11 339 297 297 279 282 326 339 325 326 320 326 337 327 319 316 316 318 320 321 320 320 319 318 317 316 315 315 315 315 313 310 309 310 308 306 303 301 298 294 289
310 301 285 260 235 271 270 256 244 278 315 318 316 322 348 325 312 315 318 321 322 322 321 321 320 320 319 319 317 317 314 314 313 310 309 310 310 308 307 305 301 297 294 291
229 261 288 299 289 279 265 220 224 276 320 317 314 323 328 315 318 319 317 317 321 321 321 320 319 319 319 318 318 315 314 312 310 308 308 308 309 308 306 305 303 299 297 293
242 261 276 295 289 281 53 124 210 287 307 308 306 313 318 314 315 304 300 311 320 319 318 317 317 318 317 319 319 316 312 309 308 307 310 312 312 309 307 305 301 298 295 291
238 245 277 287 289 294 168 179 227 300 308 309 314 316 315 318 310 312 11 326 316 316 316 314 314 315 316 317 320 316 310 309 309 310 314 314 312 310 307 304 300 299 295 289
192 228 260 274 291 296 9 138 142 282 287 10 317 312 316 318 315 331 342 329 322 320 317 315 314 313 315 321 320 313 310 310 309 313 313 313 311 309 307 305 302 299 293 287
229 235 253 273 280 285 124 143 186 287 341 347 322 313 311 315 311 316 321 321 321 319 316 314 312 312 318 320 317 310 308 307 309 312 310 311 311 310 308 308 305 302 296 289
274 273 262 274 277 292 139 166 245 317 328 312 312 308 308 309 311 314 317 319 319 319 318 317 314 314 318 319 316 310 308 309 310 308 309 311 313 314 313 312 309 306 302 294
255 289 296 272 287 34 188 217 251 280 287 298 303 308 310 310 314 318 319 320 321 320 319 317 314 314 317 321 319 311 310 311 308 306 307 310 312 313 311 312 313 311 306 297
242 221 261 267 272 258 231 235 245 250 263 282 292 298 305 309 315 318 319 320 321 320 319 318 317 315 317 320 318 312 310 310 306 304 306 308 310 311 313 313 314 315 315 311
289 246 258 262 274 271 241 233 238 239 244 259 271 284 298 307 312 316 316 317 320 319 319 318 316 314 314 317 316 315 314 312 307 304 303 305 308 311 311 312 314 314 316 315
263 251 254 270 282 250 243 207 215 223 232 247 264 280 291 302 308 311 312 316 317 318 319 318 318 317 316 316 315 318 320 317 310 306 304 303 306 309 311 315 317 291 269 296
Height
1505 1501 1497 1496 1495 1497 1496 1496 1497 1504 1509 1510 1517 1523 1526 1526 1526 1527 1528 1528 1529 1529 1529 1528 1527 1527 1525 1523 1521 1520 1518 1516 1514 1512 1511 1510 1509 1507 1506 1504 1502 1501 1501 1500
1500 1498 1496 1497 1497 1497 1496 1497 1498 1506 1510 1512 1519 1524 1526 1527 1528 1529 1529 1529 1530 1530 1530 1530 1529 1528 1526 1524 1522 1520 1518 1516 1514 1512 1510 1509 1507 1506 1504 1502 1499 1498 1497 1497
1501 1496 1497 1498 1496 1496 1494 1494 1494 1501 1509 1510 1513 1521 1523 1526 1528 1530 1530 1531 1531 1531 1531 1530 1529 1528 1526 1524 1522 1520 1518 1516 1513 1511 1510 1508 1507 1505 1503 1500 1497 1495 1493 1493
1497 1496 1498 1497 1495 1494 1494 1491 1494 1499 1505 1502 1507 1515 1521 1521 1524 1528 1529 1530 1531 1531 1531 1530 1529 1527 1526 1524 1521 1519 1516 1514 1512 1510 1508 1507 1505 1503 1500 1498 1495 1492 1490 1488
1498 1498 1498 1497 1496 1495 1494 1494 1493 1495 1497 1501 1503 1508 1521 1519 1521 1523 1527 1529 1530 1531 1530 1529 1528 1526 1524 1522 1520 1517 1514 1512 1509 1507 1505 1503 1502 1500 1498 1495 1493 1490 1488 1485
1498 1499 1498 1496 1495 1495 1495 1495 1494 1493 1491 1506 1504 1506 1522 1516 1518 1520 1525 1528 1529 1529 1529 1528 1526 1525 1522 1520 1518 1515 1512 1509 1506 1504 1502 1499 1497 1495 1493 1491 1489 1488 1486 1483
1500 1498 1497 1496 1492 1493 1492 1495 1502 1505 1505 1508 1502 1505 1521 1518 1520 1522 1524 1526 1528 1528 1527 1526 1525 1523 1520 1517 1515 1512 1508 1505 1503 1500 1498 1495 1492 1490 1488 1486 1485 1483 1482 1481
1505 1506 1500 1498 1497 1495 1494 1494 1508 1518 1512 1503 1502 1511 1520 1521 1523 1525 1525 1526 1527 1527 1525 1524 1523 1520 1517 1514 1511 1508 1505 1502 1499 1496 1493 1490 1487 1485 1484 1482 1480 1478 1477 1476
1505 1506 1501 1502 1500 1497 1495 1495 1495 1501 1502 1507 1505 1514 1520 1522 1523 1524 1524 1525 1525 1525 1524 1522 1520 1517 1514 1511 1508 1505 1501 1498 1494 1491 1487 1485 1482 1480 1477 1475 1473 1472 1471 1469
1504 1508 1502 1502 1498 1502 1499 1499 1498 1504 1517 1517 1506 1506 1517 1518 1520 1521 1522 1523 1523 1523 1521 1519 1517 1514 1511 1508 1505 1501 1497 1493 1489 1485 1482 1479 1476 1473 1471 1469 1467 1465 1463 1462
1504 1508 1505 1503 1508 1508 1503 1504 1504 1503 1510 1520 1519 1513 1513 1518 1520 1520 1520 1521 1521 1520 1518 1516 1513 1510 1507 1503 1499 1496 1492 1487 1483 1479 1475 1471 1468 1465 1463 1461 1459 1457 1455 1454
1509 1505 1509 1511 1512 1509 1507 1510 1509 1515 1518 1516 1517 1514 1514 1517 1519 1520 1520 1520 1519 1518 1515 1512 1509 1505 1502 1498 1494 1490 1486 1482 1477 1473 1469 1465 1461 1458 1455 1453 1450 1448 1446 1445
1510 1512 1517 1516 1515 1511 1511 1512 1511 1512 1514 1515 1519 1516 1515 1516 1518 1519 1518 1518 1516 1514 1511 1508 1505 1501 1498 1494 1490 1485 1481 1476 1471 1467 1462 1458 1454 1451 1447 1444 1442 1439 1437 1435
1513 1510 1513 1517 1515 1510 1513 1515 1513 1511 1512 1516 1516 1515 1509 1510 1513 1515 1516 1515 1513 1511 1508 1505 1501 1498 1494 1490 1485 1480 1475 1470 1465 1461 1456 1451 1447 1444 1440 1437 1433 1431 1428 1426
1512 1510 1511 1511 1511 1511 1513 1515 1516 1516 1518 1518 1517 1515 1510 1512 1515 1516 1515 1513 1510 1507 1504 1501 1498 1494 1489 1485 1480 1475 1470 1465 1460 1455 1450 1446 1441 1437 1433 1429 1426 1422 1419 1417
1511 1511 1512 1512 1512 1512 1514 1515 1517 1517 1516 1515 1514 1512 1509 1514 1515 1514 1512 1510 1507 1504 1501 1497 1493 1489 1485 1480 1475 1470 1464 1460 1455 1450 1446 1441 1436 1431 1427 1423 1418 1415 1411 1408
1508 1512 1515 1511 1509 1513 1513 1510 1514 1514 1513 1514 1514 1512 1510 1511 1512 1512 1510 1507 1505 1502 1498 1494 1489 1485 1481 1476 1471 1465 1460 1456 1451 1446 1441 1436 1431 1426 1421 1416 1411 1407 1403 1399
1511 1512 1512 1509 1515 1524 1510 1507 1511 1514 1512 1510 1511 1510 1510 1511 1511 1509 1506 1505 1502 1499 1495 1490 1486 1481 1477 1472 1467 1461 1456 1452 1447 1442 1437 1432 1426 1420 1414 1409 1404 1399 1395 1391
1510 1511 1509 1510 1510 1506 1506 1509 1510 1512 1510 1508 1510 1510 1510 1508 1507 1501 1503 1503 1500 1496 1492 1487 1483 1478 1473 1468 1462 1457 1452 1448 1443 1438 1432 1426 1420 1414 1407 1402 1396 1391 1387 1383
1511 1510 1508 1508 1517 1517 1502 1506 1510 1513 1508 1507 1508 1508 1507 1506 1501 1499 1500 1499 1495 1492 1488 1483 1478 1473 1468 1463 1458 1452 1447 1443 1438 1433 1427 1421 1414 1408 1402 1396 1390 1385 1380 1376
1506 1507 1507 1506 1509 1499 1499 1506 1510 1510 1508 1506 1506 1506 1506 1504 1503 1501 1498 1495 1492 1487 1483 1478 1474 1469 1464 1458 1453 1447 1442 1438 1433 1427 1421 1415 1409 1403 1396 1390 1385 1379 1375 1370
1501 1500 1504 1505 1509 1504 1502 1504 1504 1504 1504 1504 1504 1504 1503 1502 1500 1497 1495 1491 1487 1483 1478 1474 1469 1464 1459 1454 1448 1443 1437 1433 1427 1421 1416 1410 1405 1398 1393 1386 1381 1376 1371 1366
1498 1496 1494 1497 1499 1498 1499 1499 1500 1501 1502 1502 1501 1501 1500 1498 1496 1493 1490 1487 1483 1479 1474 1469 1465 1460 1455 1450 1445 1438 1433 1427 1421 1416 1411 1406 1400 1394 1388 1383 1377 1372 1368 1364
1493 1499 1497 1496 1491 1494 1496 1497 1498 1498 1499 1499 1499 1498 1497 1495 1492 1490 1487 1483 1479 1475 1470 1466 1461 1456 1451 1446 1440 1435 1428 1422 1417 1411 1406 1401 1396 1390 1385 1380 1375 1370 1365 1361
1492 1494 1493 1493 1490 1491 1491 1492 1494 1494 1495 1495 1495 1495 1494 1492 1489 1487 1483 1480 1476 1471 1467 1462 1457 1452 1447 1441 1436 1430 1424 1418 1412 1406 1401 1397 1392 1387 1382 1377 1372 1368 1363 1360
1487 1488 1489 1487 1484 1487 1486 1488 1490 1491 1491 1492 1492 1491 1490 1489 1486 1484 1481 1477 1473 1468 1463 1458 1453 1448 1442 1437 1432 1427 1421 1414 1408 1402 1397 1393 1389 1384 1380 1375 1370 1366 1362 1357